EW0401 Weather Reports


time (UTC)temp
C
wind
direction
speed
KPH
gust
KPH
rain 1hr
cm
rain 24hr
cm
rain mn
cm
humidity
%
barometer
mb
20260502211553 24 0 0.0 11.3 0.00 1.47 0.00 48 1018.7
20260502210108 24 0 1.6 9.7 0.00 1.47 0.00 49 1018.8
20260502204554 24 0 0.0 12.9 0.00 2.13 0.00 47 1018.9
20260502203058 24 0 0.0 11.3 0.00 2.13 0.00 50 1019.2
20260502201552 24 20 0.0 4.8 0.00 2.13 0.00 51 1019.2
20260502200121 23 65 0.0 6.4 0.00 2.13 0.00 48 1019.4
20260502194553 23 0 0.0 4.8 0.00 3.15 0.00 50 1019.6
20260502193053 23 0 0.0 16.1 0.00 3.15 0.00 53 1019.6
20260502191558 23 89 1.6 14.5 0.00 3.15 0.00 50 1019.9
20260502190056 23 329 1.6 14.5 0.00 3.15 0.00 54 1019.9
20260502184550 23 360 1.6 8.0 0.00 3.17 0.00 53 1019.9
20260502183054 22 0 1.6 9.7 0.00 3.17 0.00 54 1020.3
20260502181552 22 19 1.6 16.1 0.00 3.17 0.00 55 1020.4
20260502163100 20 19 3.2 17.7 0.00 5.46 0.00 65 1020.6
20260502161633 20 15 1.6 9.7 0.00 5.46 0.00 69 1020.6
20260502151610 18 0 0.0 9.7 0.00 5.46 0.00 78 1020.8
20260502130103 13 28 0.0 3.2 0.00 5.64 0.00 90 1019.4
20260502123053 12 0 0.0 6.4 0.00 5.74 0.00 90 1019.0
20260502121556 11 0 0.0 3.2 0.00 5.74 0.00 90 1019.1
20260502121031 12 300 0.0 1.6 0.00 5.71 0.00 91 1018.8
20260502120541 12 300 0.0 3.2 0.00 5.74 0.00 91 1018.7
20260502120145 11 300 0.0 3.2 0.00 5.71 0.00 91 1018.6
20260502115528 11 299 1.6 3.2 0.00 5.74 0.00 91 1018.6
20260502114554 11 0 0.0 0.0 0.00 5.74 0.00 90 1018.8
20260502113055 11 0 0.0 4.8 0.00 5.74 0.00 90 1018.4
20260502111550 11 12 0.0 8.0 0.00 5.74 0.00 90 1018.2
20260502104553 11 0 0.0 3.2 0.00 5.82 0.00 90 1017.7
20260502103107 11 0 0.0 12.9 0.00 5.82 0.00 89 1017.4
20260502101557 11 0 0.0 6.4 0.00 5.82 0.00 90 1017.0
20260502100104 11 0 1.6 8.0 0.00 5.82 0.00 90 1016.7
20260502090113 11 0 0.0 3.2 0.00 5.92 0.00 89 1016.4
20260502070106 12 61 1.6 20.9 0.00 6.50 0.00 91 1016.1
20260502064610 12 65 3.2 17.7 0.00 6.86 0.00 91 1016.0
20260502063055 12 82 1.6 11.3 0.00 6.86 0.00 91 1015.8
20260502061553 12 0 1.6 9.7 0.00 6.86 0.00 91 1015.9
20260502060056 12 0 3.2 12.9 0.00 6.86 0.00 91 1015.8
20260502054559 12 0 1.6 14.5 0.00 7.01 0.00 91 1016.0
20260502053054 12 61 0.0 14.5 0.00 7.01 0.00 91 1016.3
20260502051553 12 60 3.2 14.5 0.00 7.01 0.00 91 1016.4
20260502050059 12 61 3.2 14.5 0.00 7.01 0.00 91 1016.3
20260502044556 12 63 1.6 14.5 0.00 7.01 7.01 92 1016.1
20260502043054 12 0 0.0 3.2 0.00 7.01 7.01 92 1016.2
20260502041559 12 15 0.0 14.5 0.05 7.01 7.01 92 1016.0
20260502040050 12 0 0.0 12.9 0.05 7.01 7.01 92 1016.0
20260502034553 12 0 1.6 8.0 0.10 7.01 7.01 92 1015.2
20260502033101 13 0 1.6 14.5 0.13 7.01 7.01 92 1014.7
20260502031603 13 0 1.6 14.5 0.08 6.96 6.96 92 1014.6
20260502030058 13 0 1.6 12.9 0.10 6.96 6.96 92 1014.3
20260502024607 13 42 3.2 12.9 0.05 7.24 6.91 92 1014.6
20260502023121 13 0 1.6 6.4 0.03 7.21 6.88 92 1014.6
20260502021557 13 301 1.6 9.7 0.05 7.21 6.88 92 1014.2
20260502020056 13 0 1.6 8.0 0.03 7.19 6.86 92 1013.7
20260502014553 13 327 1.6 8.0 0.08 7.26 6.86 92 1013.4
20260502013057 13 0 0.0 9.7 0.18 7.24 6.83 92 1013.2
20260502011556 13 32 1.6 12.9 0.25 7.24 6.83 92 1012.3
20260502010052 13 0 1.6 8.0 0.28 7.24 6.83 92 1011.5
20260502004600 14 0 1.6 8.0 0.28 7.19 6.78 92 1011.9
20260502003054 14 346 1.6 12.9 0.18 7.06 6.65 92 1011.9
20260502001624 14 0 1.6 16.1 0.10 6.99 6.58 92 1011.1
20260502000110 14 0 4.8 16.1 0.08 6.96 6.55 92 1011.5
20260501234556 14 5 0.0 11.3 0.08 6.91 6.50 92 1012.3
20260501233102 15 10 0.0 8.0 0.25 6.88 6.48 92 1011.1
20260501231609 15 0 3.2 9.7 0.33 6.88 6.48 92 1010.9
20260501230106 15 71 1.6 11.3 0.36 6.88 6.48 92 1011.1
20260501224612 15 69 1.6 9.7 0.33 6.81 6.40 92 1011.7
20260501223100 15 0 0.0 4.8 0.20 6.60 6.20 92 1012.0
20260501221557 15 66 0.0 8.0 0.30 6.55 6.15 92 1011.9
20260501220058 15 102 0.0 6.4 0.58 6.53 6.12 92 1011.2
20260501214558 15 58 1.6 6.4 0.66 6.48 6.07 92 1011.3
20260501213053 15 0 0.0 8.0 0.74 6.40 5.97 92 1011.2